{"data":{"norad_id":63715,"intl_designator":"2025-087U","name":"STARLINK-33728","alt_names":[],"object_type":"PAYLOAD","status":"ACTIVE","operator":null,"country":"US","launch_date":"2025-04-28","launch_site_code":"AFWTR","launch_vehicle":null,"mission":null,"orbit_class":"UNKNOWN","rcs_meters":null,"size_class":null,"mass_kg":null,"dimensions":null,"purposes":["comms"],"wikipedia_slug":null,"has_3d_model":false,"image_url":null,"decayed_at":null,"tle_current":{"epoch":"2026-05-25T04:29:52.438272Z","epoch_age_seconds":62130,"freshness":"FRESH","line1":"1 63715U 25087U   26145.18741248  .00015683  00000+0  54047-3 0  9992","line2":"2 63715  53.1570 224.0936 0001292  76.1864 283.9281 15.30202326 60910","mean_motion":15.30202326,"eccentricity":0.0001292,"inclination_deg":53.157,"raan_deg":224.0936,"arg_perigee_deg":76.1864,"mean_anomaly_deg":283.9281,"bstar":0.00054047,"rev_number":6091,"period_min":94.105202660632,"perigee_km":474.32267222131,"apogee_km":476.09357660146,"semimajor_km":6853.3451244114,"source":"CELESTRAK","updated_at":"2026-05-25T13:38:20.100473Z"}}}